| time (UTC) | temp F | wind direction | speed MPH | gust MPH | rain 1hr in | rain 24hr in | rain mn in | humidity % | barometer mb |
| 20260507095203 | 40 | 224 | 0.0 | 2.0 | 0.00 | 0.00 | 0.00 | 82 | 1013.8 |
| 20260507094659 | 40 | 178 | 2.0 | 2.0 | 0.00 | 0.00 | 0.00 | 84 | 1014.0 |
| 20260507094155 | 40 | 174 | 2.0 | 2.0 | 0.00 | 0.00 | 0.00 | 83 | 1013.9 |
| 20260507093653 | 41 | 237 | 0.0 | 3.0 | 0.00 | 0.00 | 0.00 | 83 | 1013.9 |
| 20260507093152 | 41 | 268 | 2.0 | 4.0 | 0.00 | 0.00 | 0.00 | 78 | 1013.7 |
| 20260507092649 | 41 | 236 | 1.0 | 3.0 | 0.00 | 0.00 | 0.00 | 81 | 1013.9 |
| 20260507092145 | 41 | 252 | 2.0 | 3.0 | 0.00 | 0.00 | 0.00 | 75 | 1013.7 |
| 20260507091641 | 41 | 221 | 0.0 | 3.0 | 0.00 | 0.00 | 0.00 | 73 | 1013.8 |
| 20260507091137 | 41 | 228 | 0.0 | 2.0 | 0.00 | 0.00 | 0.00 | 76 | 1013.7 |
| 20260507090633 | 41 | 262 | 2.0 | 3.0 | 0.00 | 0.00 | 0.00 | 78 | 1013.8 |
| 20260507090131 | 41 | 231 | 2.0 | 2.0 | 0.00 | 0.00 | 0.00 | 76 | 1013.8 |
| 20260507085628 | 42 | 308 | 0.0 | 2.0 | 0.00 | 0.00 | 0.00 | 71 | 1013.7 |
| 20260507085124 | 42 | 356 | 0.0 | 2.0 | 0.00 | 0.00 | 0.00 | 71 | 1013.5 |
| 20260507084621 | 42 | 250 | 2.0 | 3.0 | 0.00 | 0.00 | 0.00 | 71 | 1013.5 |
| 20260507084118 | 42 | 165 | 0.0 | 3.0 | 0.00 | 0.00 | 0.00 | 70 | 1013.6 |
| 20260507083614 | 42 | 195 | 0.0 | 4.0 | 0.00 | 0.00 | 0.00 | 70 | 1013.6 |
| 20260507083112 | 43 | 284 | 2.0 | 3.0 | 0.00 | 0.00 | 0.00 | 69 | 1013.7 |
| 20260507082607 | 43 | 232 | 0.0 | 2.0 | 0.00 | 0.00 | 0.00 | 70 | 1013.7 |
| 20260507082104 | 43 | 200 | 1.0 | 2.0 | 0.00 | 0.00 | 0.00 | 69 | 1013.8 |
| 20260507081600 | 43 | 241 | 1.0 | 2.0 | 0.00 | 0.00 | 0.00 | 69 | 1013.8 |
| 20260507081057 | 43 | 220 | 2.0 | 3.0 | 0.00 | 0.00 | 0.00 | 68 | 1013.8 |
| 20260507080553 | 44 | 250 | 1.0 | 3.0 | 0.00 | 0.00 | 0.00 | 73 | 1013.7 |
| 20260507080050 | 44 | 218 | 1.0 | 3.0 | 0.00 | 0.00 | 0.00 | 69 | 1013.8 |
| 20260507075545 | 44 | 225 | 1.0 | 3.0 | 0.00 | 0.00 | 0.00 | 68 | 1013.7 |
| 20260507075041 | 45 | 117 | 1.0 | 2.0 | 0.00 | 0.00 | 0.00 | 68 | 1014.0 |
| 20260507074538 | 45 | 356 | 1.0 | 3.0 | 0.00 | 0.00 | 0.00 | 68 | 1013.9 |
| 20260507074032 | 45 | 192 | 0.0 | 2.0 | 0.00 | 0.00 | 0.00 | 69 | 1013.8 |
| 20260507073527 | 45 | 133 | 2.0 | 2.0 | 0.00 | 0.00 | 0.00 | 67 | 1013.9 |
| 20260507073024 | 46 | 261 | 0.0 | 1.0 | 0.00 | 0.00 | 0.00 | 67 | 1013.7 |
| 20260507072522 | 46 | 261 | 0.0 | 2.0 | 0.00 | 0.00 | 0.00 | 67 | 1013.7 |
| 20260507072019 | 46 | 250 | 0.0 | 2.0 | 0.00 | 0.00 | 0.00 | 67 | 1013.7 |
| 20260507071516 | 46 | 75 | 1.0 | 2.0 | 0.00 | 0.00 | 0.00 | 68 | 1013.5 |
| 20260507071012 | 46 | 239 | 0.0 | 2.0 | 0.00 | 0.00 | 0.00 | 67 | 1013.5 |
| 20260507070510 | 46 | 103 | 0.0 | 4.0 | 0.00 | 0.00 | 0.00 | 65 | 1013.6 |
| 20260507070010 | 46 | 116 | 0.0 | 2.0 | 0.00 | 0.00 | 0.00 | 67 | 1013.8 |
| 20260507065503 | 46 | 169 | 1.0 | 2.0 | 0.00 | 0.00 | 0.00 | 73 | 1013.6 |
| 20260507065000 | 46 | 235 | 2.0 | 2.0 | 0.00 | 0.00 | 0.00 | 68 | 1013.6 |
| 20260507064458 | 46 | 254 | 1.0 | 3.0 | 0.00 | 0.00 | 0.00 | 69 | 1013.7 |
| 20260507063956 | 46 | 238 | 0.0 | 4.0 | 0.00 | 0.00 | 0.00 | 70 | 1013.9 |
| 20260507063452 | 46 | 42 | 0.0 | 4.0 | 0.00 | 0.00 | 0.00 | 67 | 1013.9 |
| 20260507062950 | 46 | 184 | 0.0 | 2.0 | 0.00 | 0.00 | 0.00 | 69 | 1013.9 |
| 20260507062447 | 46 | 213 | 2.0 | 4.0 | 0.00 | 0.00 | 0.00 | 65 | 1013.9 |
| 20260507061944 | 46 | 103 | 1.0 | 2.0 | 0.00 | 0.00 | 0.00 | 69 | 1013.9 |
| 20260507061442 | 46 | 230 | 2.0 | 2.0 | 0.00 | 0.00 | 0.00 | 72 | 1014.1 |
| 20260507060940 | 46 | 235 | 0.0 | 3.0 | 0.00 | 0.00 | 0.00 | 69 | 1014.0 |
| 20260507060437 | 46 | 60 | 1.0 | 3.0 | 0.00 | 0.00 | 0.00 | 70 | 1014.1 |
| 20260507055933 | 46 | 101 | 1.0 | 3.0 | 0.00 | 0.00 | 0.00 | 71 | 1014.0 |
| 20260507055429 | 46 | 198 | 1.0 | 2.0 | 0.00 | 0.00 | 0.00 | 70 | 1014.0 |
| 20260507054926 | 46 | 238 | 0.0 | 3.0 | 0.00 | 0.00 | 0.00 | 71 | 1013.8 |
| 20260507054422 | 46 | 226 | 1.0 | 2.0 | 0.00 | 0.00 | 0.00 | 67 | 1013.9 |
| 20260507053919 | 46 | 150 | 1.0 | 2.0 | 0.00 | 0.00 | 0.00 | 67 | 1014.0 |
| 20260507053417 | 47 | 195 | 0.0 | 3.0 | 0.00 | 0.00 | 0.00 | 70 | 1014.0 |
| 20260507052915 | 47 | 226 | 1.0 | 2.0 | 0.00 | 0.00 | 0.00 | 69 | 1014.0 |
| 20260507052412 | 47 | 241 | 0.0 | 2.0 | 0.00 | 0.00 | 0.00 | 70 | 1013.8 |
| 20260507051903 | 47 | 251 | 0.0 | 2.0 | 0.00 | 0.00 | 0.00 | 71 | 1014.0 |
| 20260507051401 | 47 | 120 | 2.0 | 2.0 | 0.00 | 0.00 | 0.00 | 65 | 1014.1 |
| 20260507050858 | 47 | 105 | 2.0 | 2.0 | 0.00 | 0.00 | 0.00 | 64 | 1014.0 |
| 20260507050354 | 48 | 37 | 0.0 | 2.0 | 0.00 | 0.00 | 0.00 | 67 | 1014.1 |
| 20260507045851 | 48 | 229 | 0.0 | 3.0 | 0.00 | 0.00 | 0.00 | 62 | 1014.3 |
| 20260507045347 | 48 | 168 | 0.0 | 3.0 | 0.00 | 0.00 | 0.00 | 64 | 1014.1 |
| 20260507044845 | 48 | 157 | 0.0 | 2.0 | 0.00 | 0.00 | 0.00 | 68 | 1014.2 |
| 20260507044341 | 48 | 196 | 0.0 | 6.0 | 0.00 | 0.00 | 0.00 | 64 | 1014.2 |
| 20260507043837 | 48 | 154 | 0.0 | 4.0 | 0.00 | 0.00 | 0.00 | 62 | 1014.2 |
| 20260507043333 | 48 | 236 | 2.0 | 2.0 | 0.00 | 0.00 | 0.00 | 65 | 1013.9 |
| 20260507042830 | 48 | 322 | 2.0 | 4.0 | 0.00 | 0.00 | 0.00 | 63 | 1014.0 |
| 20260507042326 | 48 | 193 | 0.0 | 3.0 | 0.00 | 0.00 | 0.00 | 65 | 1013.6 |
| 20260507041823 | 48 | 225 | 2.0 | 4.0 | 0.00 | 0.00 | 0.00 | 66 | 1013.5 |
| 20260507041319 | 48 | 183 | 0.0 | 4.0 | 0.00 | 0.00 | 0.00 | 65 | 1014.0 |
| 20260507040817 | 48 | 178 | 0.0 | 3.0 | 0.00 | 0.00 | 0.00 | 71 | 1013.8 |
| 20260507040313 | 48 | 251 | 0.0 | 2.0 | 0.00 | 0.00 | 0.00 | 67 | 1013.8 |
| 20260507035809 | 48 | 229 | 2.0 | 3.0 | 0.00 | 0.20 | 0.20 | 65 | 1014.0 |
| 20260507035306 | 48 | 231 | 0.0 | 3.0 | 0.00 | 0.20 | 0.20 | 69 | 1014.2 |
| 20260507034803 | 48 | 78 | 1.0 | 2.0 | 0.00 | 0.20 | 0.20 | 69 | 1013.8 |
| 20260507034259 | 48 | 217 | 0.0 | 3.0 | 0.00 | 0.20 | 0.20 | 71 | 1013.9 |
| 20260507033757 | 48 | 258 | 0.0 | 2.0 | 0.00 | 0.20 | 0.20 | 72 | 1013.6 |
| 20260507033255 | 48 | 309 | 0.0 | 3.0 | 0.00 | 0.20 | 0.20 | 73 | 1013.7 |
| 20260507032751 | 49 | 258 | 0.0 | 3.0 | 0.00 | 0.20 | 0.20 | 75 | 1013.6 |
| 20260507032247 | 49 | 295 | 0.0 | 3.0 | 0.00 | 0.20 | 0.20 | 73 | 1013.7 |
| 20260507031744 | 49 | 226 | 2.0 | 3.0 | 0.00 | 0.20 | 0.20 | 74 | 1013.7 |
| 20260507031241 | 49 | 122 | 0.0 | 2.0 | 0.00 | 0.20 | 0.20 | 82 | 1013.6 |
| 20260507030738 | 49 | 190 | 2.0 | 3.0 | 0.00 | 0.20 | 0.20 | 82 | 1013.6 |
| 20260507030235 | 49 | 106 | 2.0 | 3.0 | 0.00 | 0.20 | 0.20 | 77 | 1013.7 |
| 20260507025732 | 49 | 130 | 2.0 | 3.0 | 0.00 | 0.20 | 0.20 | 78 | 1013.6 |
| 20260507025229 | 49 | 98 | 2.0 | 3.0 | 0.00 | 0.20 | 0.20 | 81 | 1013.8 |
| 20260507024728 | 49 | 69 | 0.0 | 1.0 | 0.00 | 0.20 | 0.20 | 80 | 1013.8 |
| 20260507024224 | 49 | 292 | 0.0 | 2.0 | 0.00 | 0.20 | 0.20 | 80 | 1013.7 |
| 20260507023720 | 49 | 66 | 1.0 | 2.0 | 0.00 | 0.20 | 0.20 | 80 | 1013.3 |
| 20260507023217 | 49 | 60 | 0.0 | 2.0 | 0.00 | 0.20 | 0.20 | 81 | 1013.1 |
| 20260507022715 | 50 | 121 | 1.0 | 3.0 | 0.00 | 0.20 | 0.20 | 79 | 1013.3 |
| 20260507022210 | 50 | 108 | 0.0 | 2.0 | 0.00 | 0.20 | 0.20 | 83 | 1013.4 |
| 20260507021707 | 49 | 175 | 1.0 | 2.0 | 0.00 | 0.20 | 0.20 | 83 | 1013.4 |
| 20260507021202 | 50 | 281 | 0.0 | 2.0 | 0.00 | 0.20 | 0.20 | 82 | 1013.2 |
| 20260507020701 | 50 | 93 | 0.0 | 1.0 | 0.00 | 0.20 | 0.20 | 81 | 1013.3 |
| 20260507020156 | 50 | 103 | 0.0 | 1.0 | 0.00 | 0.20 | 0.20 | 79 | 1013.5 |
| 20260507015655 | 50 | 14 | 0.0 | 2.0 | 0.00 | 0.20 | 0.20 | 79 | 1013.7 |
| 20260507015152 | 50 | 97 | 0.0 | 3.0 | 0.00 | 0.20 | 0.20 | 81 | 1013.7 |
| 20260507014648 | 50 | 72 | 0.0 | 2.0 | 0.00 | 0.20 | 0.20 | 85 | 1013.6 |
| 20260507014144 | 50 | 40 | 0.0 | 2.0 | 0.00 | 0.20 | 0.20 | 85 | 1013.8 |
| 20260507013641 | 50 | 245 | 0.0 | 1.0 | 0.00 | 0.20 | 0.20 | 85 | 1013.7 |
| 20260507013138 | 51 | 229 | 0.0 | 0.0 | 0.00 | 0.20 | 0.20 | 85 | 1013.8 |
| 20260507012636 | 51 | 259 | 1.0 | 2.0 | 0.00 | 0.20 | 0.20 | 85 | 1013.8 |
| 20260507012131 | 51 | 269 | 0.0 | 1.0 | 0.00 | 0.20 | 0.20 | 86 | 1013.6 |
| 20260507011630 | 51 | 301 | 0.0 | 0.0 | 0.00 | 0.20 | 0.20 | 86 | 1013.8 |
| 20260507011125 | 51 | 239 | 0.0 | 2.0 | 0.00 | 0.20 | 0.20 | 82 | 1013.4 |
| 20260507010620 | 51 | 44 | 0.0 | 1.0 | 0.00 | 0.20 | 0.20 | 83 | 1013.4 |
| 20260507010116 | 51 | 330 | 0.0 | 2.0 | 0.00 | 0.20 | 0.20 | 84 | 1013.6 |
| 20260507005614 | 51 | 113 | 0.0 | 2.0 | 0.00 | 0.20 | 0.20 | 85 | 1013.7 |
| 20260507005110 | 51 | 76 | 0.0 | 1.0 | 0.00 | 0.20 | 0.20 | 85 | 1013.7 |
| 20260507004607 | 51 | 76 | 0.0 | 2.0 | 0.00 | 0.20 | 0.20 | 83 | 1013.6 |
| 20260507004104 | 51 | 58 | 0.0 | 1.0 | 0.00 | 0.20 | 0.20 | 83 | 1013.4 |
| 20260507003600 | 51 | 266 | 1.0 | 4.0 | 0.00 | 0.20 | 0.20 | 83 | 1013.5 |
| 20260507003055 | 51 | 112 | 1.0 | 1.0 | 0.00 | 0.20 | 0.20 | 84 | 1013.2 |
| 20260507002552 | 51 | 76 | 1.0 | 2.0 | 0.00 | 0.20 | 0.20 | 83 | 1013.2 |
| 20260507002048 | 52 | 89 | 0.0 | 1.0 | 0.00 | 0.20 | 0.20 | 83 | 1013.1 |
| 20260507001545 | 52 | 87 | 1.0 | 2.0 | 0.00 | 0.20 | 0.20 | 83 | 1013.0 |
| 20260507001042 | 52 | 68 | 2.0 | 3.0 | 0.00 | 0.20 | 0.20 | 84 | 1012.9 |
| 20260507000538 | 52 | 104 | 1.0 | 2.0 | 0.00 | 0.20 | 0.20 | 84 | 1012.8 |
| 20260507000028 | 52 | 184 | 0.0 | 2.0 | 0.00 | 0.20 | 0.20 | 83 | 1012.7 |
| 20260506235525 | 52 | 124 | 1.0 | 3.0 | 0.00 | 0.20 | 0.20 | 83 | 1012.7 |
| 20260506235015 | 52 | 259 | 0.0 | 2.0 | 0.00 | 0.20 | 0.20 | 84 | 1012.5 |
| 20260506234513 | 52 | 114 | 0.0 | 2.0 | 0.00 | 0.20 | 0.20 | 85 | 1012.3 |
| 20260506234010 | 52 | 287 | 1.0 | 3.0 | 0.00 | 0.20 | 0.20 | 85 | 1012.1 |
| 20260506233507 | 52 | 68 | 1.0 | 2.0 | 0.00 | 0.20 | 0.20 | 84 | 1012.2 |
| 20260506233004 | 52 | 300 | 0.0 | 3.0 | 0.00 | 0.20 | 0.20 | 85 | 1012.3 |
| 20260506232500 | 52 | 136 | 0.0 | 3.0 | 0.00 | 0.20 | 0.20 | 85 | 1012.2 |
| 20260506231955 | 53 | 85 | 2.0 | 3.0 | 0.00 | 0.20 | 0.20 | 86 | 1012.0 |
| 20260506231453 | 53 | 89 | 2.0 | 3.0 | 0.00 | 0.20 | 0.20 | 85 | 1012.0 |
| 20260506230950 | 53 | 81 | 1.0 | 2.0 | 0.00 | 0.20 | 0.20 | 86 | 1012.0 |
| 20260506230445 | 53 | 64 | 0.0 | 2.0 | 0.00 | 0.20 | 0.20 | 85 | 1012.1 |
| 20260506225937 | 53 | 167 | 0.0 | 3.0 | 0.00 | 0.20 | 0.20 | 85 | 1012.0 |
| 20260506225435 | 53 | 46 | 0.0 | 2.0 | 0.00 | 0.20 | 0.20 | 87 | 1012.2 |
| 20260506224931 | 54 | 231 | 0.0 | 2.0 | 0.00 | 0.20 | 0.20 | 85 | 1011.9 |
| 20260506224429 | 54 | 93 | 2.0 | 3.0 | 0.00 | 0.20 | 0.20 | 85 | 1011.6 |
| 20260506223925 | 54 | 105 | 1.0 | 4.0 | 0.00 | 0.20 | 0.20 | 84 | 1011.9 |
| 20260506223420 | 54 | 100 | 2.0 | 2.0 | 0.00 | 0.20 | 0.20 | 85 | 1011.7 |
| 20260506222918 | 54 | 113 | 0.0 | 2.0 | 0.00 | 0.20 | 0.20 | 85 | 1011.5 |
| 20260506222414 | 54 | 124 | 0.0 | 2.0 | 0.00 | 0.20 | 0.20 | 84 | 1011.3 |
| 20260506221912 | 55 | 76 | 0.0 | 3.0 | 0.00 | 0.20 | 0.20 | 84 | 1011.3 |
| 20260506221409 | 55 | 140 | 0.0 | 2.0 | 0.00 | 0.20 | 0.20 | 84 | 1011.1 |
| 20260506220906 | 55 | 95 | 2.0 | 3.0 | 0.00 | 0.20 | 0.20 | 84 | 1011.3 |
| 20260506220401 | 56 | 339 | 2.0 | 3.0 | 0.00 | 0.20 | 0.20 | 85 | 1011.2 |
| 20260506215858 | 56 | 122 | 0.0 | 2.0 | 0.00 | 0.20 | 0.20 | 85 | 1011.1 |
| 20260506215353 | 56 | 59 | 0.0 | 2.0 | 0.00 | 0.20 | 0.20 | 85 | 1011.2 |
| 20260506214850 | 56 | 42 | 0.0 | 3.0 | 0.00 | 0.20 | 0.20 | 84 | 1011.0 |
| 20260506214347 | 56 | 106 | 2.0 | 2.0 | 0.00 | 0.20 | 0.20 | 84 | 1011.1 |
| 20260506213845 | 57 | 57 | 0.0 | 2.0 | 0.00 | 0.20 | 0.20 | 83 | 1010.7 |
| 20260506213342 | 57 | 54 | 1.0 | 5.0 | 0.00 | 0.20 | 0.20 | 83 | 1010.8 |
| 20260506212839 | 58 | 104 | 2.0 | 2.0 | 0.00 | 0.20 | 0.20 | 81 | 1010.5 |
| 20260506212335 | 58 | 97 | 1.0 | 2.0 | 0.00 | 0.20 | 0.20 | 82 | 1010.4 |
| 20260506211830 | 58 | 144 | 1.0 | 2.0 | 0.00 | 0.20 | 0.20 | 81 | 1010.1 |
| 20260506211326 | 58 | 129 | 0.0 | 1.0 | 0.00 | 0.20 | 0.20 | 82 | 1010.2 |
| 20260506210824 | 59 | 128 | 1.0 | 2.0 | 0.00 | 0.20 | 0.20 | 82 | 1010.1 |
| 20260506210320 | 59 | 358 | 0.0 | 2.0 | 0.00 | 0.20 | 0.20 | 82 | 1010.2 |
| 20260506205817 | 59 | 64 | 2.0 | 3.0 | 0.00 | 0.20 | 0.20 | 81 | 1010.1 |
| 20260506205313 | 59 | 86 | 2.0 | 3.0 | 0.00 | 0.20 | 0.20 | 81 | 1009.9 |
| 20260506204810 | 60 | 235 | 0.0 | 2.0 | 0.00 | 0.20 | 0.20 | 82 | 1009.9 |
| 20260506204308 | 60 | 102 | 1.0 | 1.0 | 0.00 | 0.20 | 0.20 | 82 | 1009.8 |
| 20260506203805 | 60 | 266 | 2.0 | 3.0 | 0.00 | 0.20 | 0.20 | 80 | 1009.7 |
| 20260506203302 | 60 | 227 | 0.0 | 5.0 | 0.00 | 0.20 | 0.20 | 80 | 1009.7 |
| 20260506202759 | 60 | 221 | 0.0 | 4.0 | 0.00 | 0.20 | 0.20 | 80 | 1009.6 |
| 20260506202256 | 61 | 315 | 0.0 | 4.0 | 0.00 | 0.20 | 0.20 | 83 | 1009.6 |
| 20260506201752 | 61 | 158 | 0.0 | 4.0 | 0.00 | 0.20 | 0.20 | 81 | 1009.4 |
| 20260506201249 | 61 | 137 | 2.0 | 4.0 | 0.00 | 0.20 | 0.20 | 81 | 1009.6 |
| 20260506200747 | 61 | 269 | 0.0 | 2.0 | 0.00 | 0.20 | 0.20 | 81 | 1009.3 |
| 20260506200243 | 61 | 191 | 0.0 | 5.0 | 0.00 | 0.20 | 0.20 | 79 | 1009.2 |
| 20260506195739 | 62 | 277 | 2.0 | 3.0 | 0.00 | 0.20 | 0.20 | 84 | 1009.2 |
| 20260506195236 | 61 | 235 | 0.0 | 4.0 | 0.00 | 0.20 | 0.20 | 83 | 1009.0 |
| 20260506194728 | 61 | 260 | 2.0 | 3.0 | 0.00 | 0.20 | 0.20 | 85 | 1009.0 |
| 20260506194224 | 60 | 57 | 1.0 | 2.0 | 0.00 | 0.20 | 0.20 | 90 | 1009.0 |
| 20260506193722 | 60 | 271 | 1.0 | 2.0 | 0.00 | 0.20 | 0.20 | 90 | 1009.2 |
| 20260506193219 | 60 | 96 | 0.0 | 4.0 | 0.00 | 0.20 | 0.20 | 90 | 1009.0 |
| 20260506192715 | 60 | 193 | 0.0 | 2.0 | 0.00 | 0.20 | 0.20 | 91 | 1008.8 |
| 20260506192212 | 61 | 126 | 2.0 | 3.0 | 0.00 | 0.20 | 0.20 | 90 | 1008.8 |
| 20260506191709 | 61 | 119 | 1.0 | 2.0 | 0.00 | 0.20 | 0.20 | 91 | 1008.9 |
| 20260506191205 | 61 | 251 | 1.0 | 4.0 | 0.00 | 0.20 | 0.20 | 91 | 1008.9 |
| 20260506190703 | 61 | 98 | 2.0 | 2.0 | 0.00 | 0.20 | 0.20 | 91 | 1009.1 |
| 20260506190159 | 61 | 116 | 2.0 | 3.0 | 0.00 | 0.20 | 0.20 | 91 | 1008.9 |
| 20260506185656 | 61 | 271 | 1.0 | 3.0 | 0.00 | 0.20 | 0.20 | 92 | 1008.8 |
| 20260506185152 | 60 | 114 | 1.0 | 2.0 | 0.00 | 0.20 | 0.20 | 94 | 1009.0 |
| 20260506184650 | 60 | 97 | 2.0 | 2.0 | 0.00 | 0.20 | 0.20 | 96 | 1009.1 |
| 20260506184147 | 59 | 205 | 0.0 | 1.0 | 0.00 | 0.20 | 0.20 | 96 | 1008.8 |
| 20260506183643 | 59 | 219 | 0.0 | 0.0 | 0.00 | 0.20 | 0.20 | 96 | 1009.1 |
| 20260506183139 | 59 | 99 | 4.0 | 4.0 | 0.00 | 0.20 | 0.20 | 97 | 1009.0 |
| 20260506182637 | 59 | 60 | 0.0 | 2.0 | 0.00 | 0.20 | 0.20 | 97 | 1009.0 |
| 20260506182133 | 59 | 224 | 0.0 | 2.0 | 0.00 | 0.20 | 0.20 | 97 | 1009.0 |
| 20260506181631 | 59 | 243 | 0.0 | 2.0 | 0.00 | 0.20 | 0.20 | 97 | 1009.0 |
| 20260506181128 | 59 | 60 | 0.0 | 2.0 | 0.02 | 0.20 | 0.20 | 98 | 1009.0 |
| 20260506180625 | 59 | 126 | 1.0 | 2.0 | 0.07 | 0.20 | 0.20 | 98 | 1008.9 |
| 20260506180121 | 60 | 101 | 1.0 | 3.0 | 0.02 | 0.19 | 0.19 | 97 | 1009.1 |
| 20260506175618 | 59 | 257 | 2.0 | 2.0 | 0.00 | 0.18 | 0.18 | 97 | 1008.9 |
| 20260506175114 | 59 | 273 | 2.0 | 3.0 | 0.00 | 0.18 | 0.18 | 96 | 1008.6 |
| 20260506174613 | 59 | 218 | 0.0 | 2.0 | 0.00 | 0.18 | 0.18 | 95 | 1008.8 |
| 20260506174109 | 60 | 291 | 2.0 | 3.0 | 0.00 | 0.18 | 0.18 | 95 | 1008.9 |
| 20260506173607 | 60 | 209 | 0.0 | 2.0 | 0.00 | 0.18 | 0.18 | 94 | 1008.9 |
| 20260506173103 | 60 | 193 | 0.0 | 3.0 | 0.00 | 0.18 | 0.18 | 95 | 1008.9 |
| 20260506172601 | 60 | 128 | 0.0 | 2.0 | 0.00 | 0.18 | 0.18 | 94 | 1008.8 |
| 20260506172051 | 60 | 279 | 1.0 | 3.0 | 0.00 | 0.18 | 0.18 | 94 | 1008.9 |
| 20260506171548 | 60 | 13 | 1.0 | 2.0 | 0.00 | 0.18 | 0.18 | 94 | 1008.6 |
| 20260506171046 | 61 | 268 | 1.0 | 3.0 | 0.00 | 0.18 | 0.18 | 94 | 1008.9 |
| 20260506170543 | 61 | 75 | 2.0 | 2.0 | 0.00 | 0.18 | 0.18 | 93 | 1008.5 |
| 20260506170041 | 61 | 261 | 0.0 | 2.0 | 0.00 | 0.18 | 0.18 | 92 | 1008.3 |
| 20260506165539 | 61 | 230 | 0.0 | 1.0 | 0.00 | 0.18 | 0.18 | 92 | 1008.5 |
| 20260506165035 | 61 | 166 | 0.0 | 2.0 | 0.00 | 0.18 | 0.18 | 92 | 1008.5 |
| 20260506164532 | 60 | 193 | 1.0 | 4.0 | 0.00 | 0.18 | 0.18 | 93 | 1008.5 |
| 20260506164029 | 60 | 89 | 0.0 | 4.0 | 0.00 | 0.18 | 0.18 | 93 | 1008.6 |
| 20260506163525 | 60 | 13 | 2.0 | 5.0 | 0.00 | 0.18 | 0.18 | 93 | 1008.9 |
| 20260506163021 | 60 | 81 | 2.0 | 2.0 | 0.00 | 0.18 | 0.18 | 93 | 1008.8 |
| 20260506162518 | 60 | 105 | 1.0 | 4.0 | 0.00 | 0.18 | 0.18 | 93 | 1008.8 |
| 20260506162009 | 60 | 348 | 0.0 | 2.0 | 0.00 | 0.18 | 0.18 | 94 | 1008.5 |
| 20260506161506 | 60 | 89 | 0.0 | 2.0 | 0.00 | 0.18 | 0.18 | 95 | 1008.9 |
| 20260506160958 | 59 | 50 | 0.0 | 2.0 | 0.00 | 0.18 | 0.18 | 96 | 1008.8 |
| 20260506160455 | 59 | 95 | 1.0 | 2.0 | 0.00 | 0.18 | 0.18 | 96 | 1008.5 |
| 20260506155952 | 59 | 244 | 0.0 | 1.0 | 0.00 | 0.18 | 0.18 | 97 | 1008.8 |
| 20260506155451 | 58 | 243 | 0.0 | 2.0 | 0.00 | 0.18 | 0.18 | 97 | 1008.5 |
| 20260506153622 | 58 | 214 | 0.0 | 2.0 | 0.00 | 0.18 | 0.18 | 98 | 1008.9 |
| 20260506153119 | 58 | 70 | 2.0 | 2.0 | 0.00 | 0.18 | 0.18 | 98 | 1008.6 |
| 20260506152616 | 58 | 83 | 0.0 | 2.0 | 0.00 | 0.18 | 0.18 | 98 | 1008.8 |
| 20260506152114 | 58 | 234 | 0.0 | 2.0 | 0.00 | 0.18 | 0.18 | 98 | 1008.4 |
| 20260506151612 | 58 | 113 | 0.0 | 2.0 | 0.00 | 0.18 | 0.18 | 98 | 1008.5 |
| 20260506151109 | 58 | 111 | 0.0 | 2.0 | 0.00 | 0.18 | 0.18 | 98 | 1008.5 |
| 20260506150606 | 58 | 247 | 0.0 | 2.0 | 0.00 | 0.18 | 0.18 | 98 | 1008.5 |
| 20260506145559 | 57 | 271 | 0.0 | 1.0 | 0.00 | 0.18 | 0.18 | 98 | 1008.3 |
| 20260506145057 | 57 | 93 | 2.0 | 2.0 | 0.00 | 0.18 | 0.18 | 98 | 1008.4 |
| 20260506144554 | 57 | 237 | 0.0 | 2.0 | 0.00 | 0.18 | 0.18 | 98 | 1008.4 |
| 20260506144050 | 57 | 338 | 0.0 | 3.0 | 0.00 | 0.18 | 0.18 | 98 | 1008.3 |
| 20260506143548 | 57 | 100 | 2.0 | 2.0 | 0.02 | 0.18 | 0.18 | 98 | 1008.4 |
| 20260506143046 | 57 | 89 | 2.0 | 2.0 | 0.05 | 0.18 | 0.18 | 98 | 1008.3 |
| 20260506142544 | 57 | 135 | 0.0 | 1.0 | 0.07 | 0.18 | 0.18 | 98 | 1008.4 |
| 20260506142042 | 57 | 220 | 0.0 | 2.0 | 0.02 | 0.17 | 0.17 | 98 | 1008.4 |
| 20260506141539 | 57 | 258 | 0.0 | 2.0 | 0.02 | 0.17 | 0.17 | 98 | 1008.5 |
| 20260506141037 | 57 | 243 | 0.0 | 1.0 | 0.02 | 0.17 | 0.17 | 98 | 1008.3 |
| 20260506140534 | 56 | 127 | 1.0 | 2.0 | 0.02 | 0.17 | 0.17 | 98 | 1008.0 |
| 20260506140032 | 57 | 108 | 0.0 | 2.0 | 0.02 | 0.17 | 0.17 | 98 | 1008.1 |
| 20260506135528 | 57 | 112 | 0.0 | 2.0 | 0.00 | 0.16 | 0.16 | 98 | 1008.4 |
| 20260506135024 | 57 | 278 | 0.0 | 2.0 | 0.02 | 0.16 | 0.16 | 98 | 1008.3 |
| 20260506134521 | 56 | 129 | 0.0 | 2.0 | 0.05 | 0.16 | 0.16 | 97 | 1008.3 |
| 20260506134017 | 56 | 99 | 0.0 | 2.0 | 0.05 | 0.16 | 0.16 | 97 | 1008.2 |
| 20260506133514 | 56 | 104 | 0.0 | 2.0 | 0.05 | 0.15 | 0.15 | 97 | 1008.4 |
| 20260506133011 | 56 | 72 | 0.0 | 2.0 | 0.02 | 0.15 | 0.15 | 97 | 1008.5 |
| 20260506132508 | 56 | 103 | 0.0 | 2.0 | 0.02 | 0.15 | 0.15 | 97 | 1008.4 |
| 20260506132006 | 56 | 124 | 0.0 | 2.0 | 0.05 | 0.15 | 0.15 | 97 | 1008.6 |
| 20260506131503 | 56 | 228 | 0.0 | 3.0 | 0.05 | 0.14 | 0.14 | 96 | 1008.6 |
| 20260506130959 | 56 | 250 | 0.0 | 3.0 | 0.07 | 0.14 | 0.14 | 97 | 1008.6 |
| 20260506130456 | 56 | 117 | 1.0 | 2.0 | 0.05 | 0.13 | 0.13 | 96 | 1008.4 |
| 20260506125953 | 56 | 327 | 0.0 | 2.0 | 0.00 | 0.13 | 0.13 | 97 | 1008.6 |
| 20260506125452 | 56 | 279 | 0.0 | 2.0 | 0.02 | 0.13 | 0.13 | 96 | 1008.8 |
| 20260506124949 | 56 | 133 | 1.0 | 2.0 | 0.05 | 0.13 | 0.13 | 96 | 1008.5 |
| 20260506124447 | 56 | 101 | 1.0 | 2.0 | 0.05 | 0.12 | 0.12 | 97 | 1008.4 |
| 20260506123945 | 57 | 119 | 0.0 | 2.0 | 0.05 | 0.12 | 0.12 | 97 | 1008.8 |
| 20260506123442 | 57 | 110 | 0.0 | 2.0 | 0.07 | 0.11 | 0.11 | 97 | 1008.5 |
| 20260506122940 | 57 | 293 | 0.0 | 2.0 | 0.05 | 0.11 | 0.11 | 97 | 1008.6 |
| 20260506122436 | 56 | 353 | 0.0 | 2.0 | 0.07 | 0.10 | 0.10 | 96 | 1008.9 |
| 20260506121935 | 56 | 267 | 0.0 | 2.0 | 0.07 | 0.09 | 0.09 | 96 | 1008.9 |
| 20260506121431 | 56 | 146 | 1.0 | 2.0 | 0.09 | 0.09 | 0.09 | 97 | 1008.9 |
| 20260506120928 | 56 | 166 | 0.0 | 2.0 | 0.09 | 0.08 | 0.08 | 97 | 1009.0 |
| 20260506120426 | 56 | 135 | 0.0 | 2.0 | 0.09 | 0.07 | 0.07 | 98 | 1009.1 |
| 20260506115923 | 56 | 73 | 0.0 | 2.0 | 0.09 | 0.07 | 0.07 | 97 | 1009.2 |
| 20260506115421 | 56 | 131 | 0.0 | 2.0 | 0.09 | 0.06 | 0.06 | 97 | 1009.3 |
| 20260506114919 | 56 | 84 | 0.0 | 1.0 | 0.07 | 0.05 | 0.05 | 97 | 1009.3 |
| 20260506114416 | 56 | 306 | 0.0 | 2.0 | 0.05 | 0.04 | 0.04 | 97 | 1009.2 |
| 20260506113915 | 56 | 167 | 0.0 | 1.0 | 0.05 | 0.04 | 0.04 | 97 | 1009.2 |
| 20260506113412 | 56 | 348 | 0.0 | 2.0 | 0.05 | 0.04 | 0.04 | 96 | 1009.1 |
| 20260506112908 | 56 | 283 | 2.0 | 2.0 | 0.02 | 0.03 | 0.03 | 96 | 1009.0 |
| 20260506112406 | 56 | 124 | 0.0 | 2.0 | 0.00 | 0.03 | 0.03 | 95 | 1008.8 |
| 20260506111903 | 56 | 31 | 0.0 | 2.0 | 0.02 | 0.03 | 0.03 | 95 | 1008.8 |
| 20260506111401 | 56 | 7 | 0.0 | 2.0 | 0.02 | 0.03 | 0.03 | 95 | 1008.9 |
| 20260506110858 | 57 | 304 | 0.0 | 2.0 | 0.00 | 0.02 | 0.02 | 95 | 1008.5 |
| 20260506110356 | 57 | 126 | 0.0 | 2.0 | 0.02 | 0.02 | 0.02 | 95 | 1008.5 |
| 20260506105852 | 57 | 126 | 0.0 | 2.0 | 0.02 | 0.02 | 0.02 | 94 | 1008.6 |
| 20260506105349 | 57 | 240 | 0.0 | 2.0 | 0.02 | 0.02 | 0.02 | 93 | 1008.6 |
| 20260506104846 | 57 | 60 | 0.0 | 3.0 | 0.05 | 0.02 | 0.02 | 93 | 1008.8 |
| 20260506104344 | 57 | 196 | 0.0 | 2.0 | 0.02 | 0.02 | 0.02 | 92 | 1008.8 |
| 20260506103841 | 57 | 242 | 1.0 | 3.0 | 0.02 | 0.01 | 0.01 | 90 | 1008.4 |
| 20260506103339 | 57 | 76 | 0.0 | 2.0 | 0.02 | 0.01 | 0.01 | 90 | 1008.8 |
| 20260506102836 | 57 | 276 | 2.0 | 2.0 | 0.00 | 0.01 | 0.01 | 89 | 1008.9 |
| 20260506102334 | 58 | 306 | 1.0 | 2.0 | 0.02 | 0.01 | 0.01 | 89 | 1008.6 |
| 20260506101831 | 58 | 335 | 0.0 | 2.0 | 0.02 | 0.00 | 0.00 | 86 | 1008.6 |
| 20260506101327 | 59 | 257 | 2.0 | 3.0 | 0.02 | 0.00 | 0.00 | 82 | 1008.5 |
| 20260506100825 | 58 | 204 | 1.0 | 4.0 | 0.00 | 0.00 | 0.00 | 83 | 1008.4 |
| 20260506100323 | 59 | 290 | 2.0 | 2.0 | 0.00 | 0.00 | 0.00 | 85 | 1008.1 |
| 20260506095821 | 59 | 307 | 2.0 | 2.0 | 0.00 | 0.00 | 0.00 | 81 | 1008.2 |